{"data":{"norad_id":59465,"epoch":"2026-05-24T21:06:09.074880Z","epoch_age_seconds":81635,"freshness":"FRESH","line1":"1 59465U 24068L   26144.87927170 -.00007866  00000+0 -27635-3 0  9991","line2":"2 59465  43.0027 324.3637 0000893 277.6897  82.3853 15.27612295120171","mean_motion":15.27612295,"eccentricity":8.93e-5,"inclination_deg":43.0027,"raan_deg":324.3637,"arg_perigee_deg":277.6897,"mean_anomaly_deg":82.3853,"bstar":-0.00027635,"rev_number":12017,"period_min":94.264755835839,"perigee_km":482.33969961228,"apogee_km":483.5650901782,"semimajor_km":6861.0893948952,"source":"CELESTRAK","updated_at":"2026-05-25T13:38:18.949811Z"}}